カタログに戻る

FENGYUN 1C DEB

運用中PO
NORAD 30764·DEBRIS·🇨🇳 China

打ち上げ May 10, 1999 から Taiyuan Satellite Launch Center

Loading…

次のパス (今後24時間)

TLE

最新Source: Space-Track

元期: Sep 14, 2026, 19:32 UTC

1 30764U 99025AUA 26257.81406591  .00087729  00000-0  11326-2 0  9999
2 30764  98.7744 289.6901 0037244 287.1631  72.5544 15.57831214 54782

AllMySatでFENGYUN 1C DEBをリアルタイム追跡

Download on the App Store